星链-2699 (STARLINK-2699 )

导读 | 星芒AI

STARLINK-2699 是 SpaceX Starlink 卫星互联网项目中的第 2699 颗卫星,属于低轨卫星通信网络的一部分。该卫星于 2024 年发射,旨在增强全球互联网覆盖,特别是在偏远和网络基础设施薄弱的地区。它采用先进的推进和通信技术,支持高速、低延迟的互联网服务。作为 Starlink 计划的重要组成部分,STARLINK-2699 有助于扩大 SpaceX 提供的宽带接入能力,推动全球数字连接的发展。

基本信息
目录编号:
48433
目录名称:
STARLINK-2699
国际标识:
2021-040F
轨道中心:
EARTH
卫星名称:
星链-2699
卫星全名:
星链-2699 (STARLINK-2699 )
卫星状态:
在轨 (已飞行1635 天)
发射日期:
2021-05-09 UTC
国别 :
美国 (US)
星等 :
--
轨道信息
数据来源 国际轨道数据 AOE轨道数据
星历时间 2025-10-29T23:08:10+0800
1天前
查看轨道信息
2025-10-27T04:00:00+0800
3天前
查看轨道信息
半长轴 6925.235km 6925.293km
偏心率 0.000137 0.0001466
轨道倾角 53.055° 53.052°
近地点辐角 89.532° 60.859°
升交点赤经 20.244° 32.804°
平近点角 270.582° 240.813°
近地点 546.151km 546.142km
远地点 548.049km 548.174km
周期 95.590分钟 95.591分钟
每日圈数 15.064372 15.064182
详细信息
固有亮度:
5
最大亮度:
2.5
卫星平台:
Starlink V1.0
覆盖范围:
全球
运营商:
太空探索技术公司
运营商所在国:
美国
制造商(研发单位):
太空探索技术公司
制造商所在国:
美国
使用方式:
暂无
卫星简介
星链(Starlink)计划是由太空探索技术公司(SpaceX)提出的一个巨型低轨卫星互联网星座项目,计划在2019年至2024年间在太空搭建由约1.2万颗卫星组成的“星链”网络,其中1584颗将部署在地球上空550千米处的近地轨道,并从2020年开始工作。该卫星仍在工作。
2D轨道图
3D轨道图
轨道高度分析图
轨道倾角分析图
轨道综合分析图
查看轨道综合分析图